Location: Ch�teau-Arnoux
(44.0814°N, 6.0027°E)
Time: 03:44:07
(UTC+00:00)

Shenzhou-11 Module - Pass Details

Date: 15 November 2019
Orbit: 306 x 321 km, 42.8° (Epoch: 13 December)

Event Time Altitude Azimuth Distance (km) Brightness Sun altitude
Exits shadow 04:53:19 66° 183° (S) 342 1.7 -17.5°
Drops below altitude 10° 04:55:59 10° 100° (E) 1,199 5.9 -17.0°
Sets 04:57:58 0° 98° (E) 2,031 7.6 -16.7°
